Weather in Dobra Voda

Montenegro     42°02′04″N   19°08′57″E
temp.,
°C
wind,
m/s
gust,
m/s
humid.,
%
clouds,
%
prec.,
mm/h
press.,
hPa
HPBL,
m
11 may, tue
tue1123:00+16ese00780 0.0 101711
02:00+15nne11730 0.0 101625
05:00+15nne22730 0.0 101626
08:00+19ene116744 0.0 1016154
11:00+21sse22628 0.0 1015482
14:00+21sw33645 0.0 1014474
17:00+20ssw22640 0.0 1013293
20:00+17se12790 0.0 101235
12 may, wed
wed1223:00+15e12806 0.0 101342
02:00+15ene238090 0.0 101254
05:00+15ne117699 0.0 101034
08:00+18sse147296 0.0 1010569
11:00+17sse358099 0.5 1010641
14:00+17sw34800 1.4 1010428
17:00+18sw23710 0.0 1009486
20:00+15sw22891 0.1 100975
13 may, thu
thu1323:00+14w11834 0.4 101041
02:00+13n11825 0.4 100942
05:00+14wnw227594 0.1 1008239
08:00+15wsw236995 0.1 1009391
11:00+17ssw466390 0.1 10101407
14:00+17sw56617 0.4 10101232
17:00+17ssw4559100 0.1 1010866
20:00+14sw238584 3.3 101059
14 may, fri
fri1423:00+13ene239092 2.4 101169
02:00+12ne339120 4.7 101183
05:00+11ne44944 3.5 1011114
08:00+14e33825 3.9 1013216
11:00+18sw35575 0.4 10141114
14:00+19ssw34545 0.5 10141207
17:00+18s23555 0.0 1014727
20:00+15se1276100 0.1 101461
15 may, sat
sat1523:00+13e2388100 0.6 101565
02:00+14e138868 1.8 1015126
05:00+14ne3385100 0.5 101257
08:00+17ne3476100 0.5 1011199
11:00+13se61297100 5.4 1012876
14:00+13se51194100 19.4 1009699
17:00+12e4595100 6.2 1009287
20:00+12ene469130 8.4 1007196